This demonstration page uses our WeatherBlox Daily Observations layout. Learn more.

Left ArrowRight Arrow

Hourly Observations for July 19, 2015

Temp ( °F °C ) Dew Point ( °F °C ) Humidity (%) Winds ( mph kmh ) Pressure ( in mb ) Visibility ( mi km ) Precip ( " mm )
12:53 am 00:53 Clear 84 28.9 60 15.6 44 44 SE 14 22 29.82 1010 10 16 0.00 0.00
1:53 am 01:53 Clear 82 27.8 60 15.6 47 47 SE 9 15 29.82 1010 10 16 0.00 0.00
2:53 am 02:53 Clear 79 26.1 60 15.6 52 52 SE 8 13 29.82 1010 10 16 0.00 0.00
3:53 am 03:53 Clear 78 25.6 62 16.7 58 58 SE 12 19 29.81 1010 10 16 0.00 0.00
4:53 am 04:53 Clear 78 25.6 64 17.8 62 62 SE 12 19 29.81 1010 10 16 0.00 0.00
5:53 am 05:53 Clear 77 25 64 17.8 64 64 SE 10 17 29.82 1010 10 16 0.00 0.00
6:53 am 06:53 Clear 77 25 64 17.8 64 64 SE 10 17 29.83 1010 10 16 0.00 0.00
7:53 am 07:53 Sunny 77 25 65 18.3 66 66 SE 15 24 29.84 1010 10 16 0.00 0.00
8:53 am 08:53 Sunny 82 27.8 65 18.3 56 56 SSE 12 19 29.85 1011 10 16 0.00 0.00
9:53 am 09:53 Sunny 87 30.6 63 17.2 45 45 S 7 11 29.86 1011 10 16 0.00 0.00
10:53 am 10:53 Sunny 91 32.8 59 15 34 34 SW 5 7 29.85 1011 10 16 0.00 0.00
11:53 am 11:53 Sunny 95 35 59 15 30 30 NE 6 9 29.85 1011 10 16 0.00 0.00
12:53 pm 12:53 Sunny 99 37.2 58 14.4 26 26 NNW 3 6 29.83 1010 10 16 0.00 0.00
1:53 pm 13:53 Sunny 102 38.9 55 12.8 21 21 NE 7 11 29.81 1010 10 16 0.00 0.00
2:53 pm 14:53 Mostly Sunny 103 39.4 54 12.2 20 20 ESE 8 13 29.79 1009 10 16 0.00 0.00
3:53 pm 15:53 Mostly Sunny 103 39.4 53 11.7 19 19 Calm 29.77 1008 10 16 0.00 0.00
4:53 pm 16:53 Mostly Sunny 105 40.6 53 11.7 18 18 S 8 13 29.75 1007 10 16 0.00 0.00
5:53 pm 17:53 Partly Cloudy with Light Rain 97 36.1 57 13.9 26 26 NW 18 30 29.76 1008 10 16 0.00 0.03
6:51 pm 18:51 Cloudy with Thunderstorms 88 31 66 19 49 49 E 23 37 29.71 1006 7 11 0.03 0.76
6:53 pm 18:53 Cloudy with Thunderstorms 84 28.9 68 20 59 59 E 18 30 29.80 1009 7 11 0.03 0.76
7:00 pm 19:00 Cloudy with Light Rain 84 29 70 21 62 62 SE 12 19 29.74 1007 8 13 0.00 0.00
7:22 pm 19:22 Mostly Sunny 91 33 63 17 38 38 S 23 37 29.68 1005 10 16 0.00 0.00
7:53 pm 19:53 Sunny 93 33.9 62 16.7 36 36 SSE 14 22 29.77 1008 10 16 0.00 0.03
8:53 pm 20:53 Mostly Sunny 92 33.3 61 16.1 36 36 S 16 26 29.79 1009 10 16 0.00 0.00
9:53 pm 21:53 Clear 90 32.2 61 16.1 38 38 SSE 14 22 29.79 1009 10 16 0.00 0.00
10:53 pm 22:53 Clear 88 31.1 60 15.6 39 39 S 10 17 29.82 1010 10 16 0.00 0.00
11:53 pm 23:53 Clear 86 30 60 15.6 42 42 SSE 9 15 29.83 1010 10 16 0.00 0.00

Powered by AerisWeather